Time,TemperatureF,DewpointF,PressureIn,WindDirection,WindDirectionDegrees,WindSpeedMPH,WindSpeedGustMPH,Humidity,HourlyPrecipIn,Conditions,Clouds,dailyrainin,SoftwareType,DateUTC
2013-04-14 00:00:00,56.2,46.2,29.62,South,180,6.9,10.5,69,0.00,,,0.00,WUHU216HW,2013-04-14 05:00:00,
2013-04-14 00:05:00,56.3,46.3,29.62,SSE,158,8.9,10.5,69,0.00,,,0.00,WUHU216HW,2013-04-14 05:05:00,
2013-04-14 00:10:00,56.3,46.3,29.62,SSE,158,10.1,10.1,69,0.00,,,0.00,WUHU216HW,2013-04-14 05:10:00,
2013-04-14 00:15:00,56.3,46.3,29.61,SE,135,9.6,10.1,69,0.00,,,0.00,WUHU216HW,2013-04-14 05:15:00,
2013-04-14 00:20:00,56.2,46.2,29.62,SSW,203,7.2,11.4,69,0.00,,,0.00,WUHU216HW,2013-04-14 05:20:00,
2013-04-14 00:25:00,55.6,45.6,29.61,SSE,158,6.5,11.4,69,0.00,,,0.00,WUHU216HW,2013-04-14 05:25:00,
2013-04-14 00:30:00,55.4,45.9,29.61,SE,135,5.1,11.6,70,0.00,,,0.00,WUHU216HW,2013-04-14 05:30:00,
2013-04-14 00:35:00,55.6,46.1,29.60,SE,135,6.7,11.6,70,0.00,,,0.00,WUHU216HW,2013-04-14 05:35:00,
2013-04-14 00:40:00,55.4,45.9,29.60,ESE,113,8.7,10.3,70,0.00,,,0.00,WUHU216HW,2013-04-14 05:40:00,
2013-04-14 00:45:00,55.6,46.1,29.60,South,180,10.5,10.5,70,0.00,,,0.00,WUHU216HW,2013-04-14 05:45:00,
2013-04-14 00:50:00,55.6,46.1,29.60,SE,135,6.9,13.0,70,0.00,,,0.00,WUHU216HW,2013-04-14 05:50:00,
2013-04-14 00:55:00,55.8,45.8,29.59,SE,135,6.3,13.0,69,0.00,,,0.00,WUHU216HW,2013-04-14 05:55:00,
2013-04-14 01:00:00,55.3,45.3,29.59,South,180,7.6,11.9,69,0.00,,,0.00,WUHU216HW,2013-04-14 06:00:00,
2013-04-14 01:05:00,55.1,45.9,29.59,SE,135,7.6,9.2,71,0.00,,,0.00,WUHU216HW,2013-04-14 06:05:00,
2013-04-14 01:10:00,55.1,45.9,29.59,SSE,158,8.9,8.9,71,0.00,,,0.00,WUHU216HW,2013-04-14 06:10:00,
2013-04-14 01:15:00,55.1,45.9,29.59,SSW,203,9.4,9.4,71,0.00,,,0.00,WUHU216HW,2013-04-14 06:15:00,
2013-04-14 01:20:00,54.9,45.7,29.58,ESE,113,7.8,9.4,71,0.00,,,0.00,WUHU216HW,2013-04-14 06:20:00,
2013-04-14 01:25:00,55.1,45.9,29.58,ESE,113,3.8,9.2,71,0.00,,,0.00,WUHU216HW,2013-04-14 06:25:00,
2013-04-14 01:30:00,54.9,46.1,29.58,SSW,203,6.0,7.8,72,0.00,,,0.00,WUHU216HW,2013-04-14 06:30:00,
2013-04-14 01:35:00,54.5,46.1,29.58,SSE,158,11.0,11.0,73,0.00,,,0.00,WUHU216HW,2013-04-14 06:35:00,
2013-04-14 01:40:00,54.7,46.3,29.58,SSE,158,6.9,11.9,73,0.00,,,0.00,WUHU216HW,2013-04-14 06:40:00,
2013-04-14 01:45:00,54.7,45.9,29.57,South,180,9.2,11.9,72,0.00,,,0.00,WUHU216HW,2013-04-14 06:45:00,
2013-04-14 01:50:00,54.7,45.9,29.57,SSE,158,6.9,10.1,72,0.00,,,0.00,WUHU216HW,2013-04-14 06:50:00,
2013-04-14 01:55:00,54.4,45.9,29.57,SSE,158,7.2,9.8,73,0.00,,,0.00,WUHU216HW,2013-04-14 06:55:00,
2013-04-14 02:00:00,54.4,45.9,29.57,SSE,158,12.8,12.8,73,0.00,,,0.00,WUHU216HW,2013-04-14 07:00:00,
2013-04-14 02:05:00,54.4,45.9,29.57,SSE,158,9.8,12.8,73,0.00,,,0.00,WUHU216HW,2013-04-14 07:05:00,
2013-04-14 02:10:00,54.2,45.7,29.57,SSE,158,8.5,9.8,73,0.00,,,0.00,WUHU216HW,2013-04-14 07:10:00,
2013-04-14 02:15:00,54.0,45.9,29.56,South,180,8.9,9.8,74,0.00,,,0.00,WUHU216HW,2013-04-14 07:15:00,
2013-04-14 02:20:00,53.8,45.7,29.56,SSE,158,6.0,9.8,74,0.00,,,0.00,WUHU216HW,2013-04-14 07:20:00,
2013-04-14 02:25:00,53.8,46.1,29.56,SSE,158,8.5,10.7,75,0.00,,,0.00,WUHU216HW,2013-04-14 07:25:00,
2013-04-14 02:30:00,54.2,46.1,29.56,SE,135,10.1,10.7,74,0.00,,,0.00,WUHU216HW,2013-04-14 07:30:00,
2013-04-14 02:35:00,54.2,46.1,29.55,SE,135,7.4,11.2,74,0.00,,,0.00,WUHU216HW,2013-04-14 07:35:00,
2013-04-14 02:40:00,54.4,46.6,29.55,SW,225,11.0,13.2,75,0.00,,,0.00,WUHU216HW,2013-04-14 07:40:00,
2013-04-14 02:45:00,54.4,46.3,29.55,SSE,158,9.6,13.2,74,0.00,,,0.00,WUHU216HW,2013-04-14 07:45:00,
2013-04-14 02:50:00,54.4,46.3,29.54,SSW,203,11.9,16.1,74,0.00,,,0.00,WUHU216HW,2013-04-14 07:50:00,
2013-04-14 02:55:00,54.4,46.3,29.54,South,180,11.4,16.1,74,0.00,,,0.00,WUHU216HW,2013-04-14 07:55:00,
2013-04-14 03:00:00,54.4,46.3,29.54,South,180,9.4,13.4,74,0.00,,,0.00,WUHU216HW,2013-04-14 08:00:00,
2013-04-14 03:05:00,54.5,46.5,29.54,SSE,158,10.5,11.2,74,0.00,,,0.00,WUHU216HW,2013-04-14 08:05:00,
2013-04-14 03:10:00,54.7,46.3,29.54,South,180,11.4,15.0,73,0.00,,,0.00,WUHU216HW,2013-04-14 08:10:00,
2013-04-14 03:15:00,54.7,46.6,29.53,South,180,10.3,15.0,74,0.00,,,0.00,WUHU216HW,2013-04-14 08:15:00,
2013-04-14 03:20:00,54.5,46.5,29.53,SSE,158,12.1,12.8,74,0.00,,,0.00,WUHU216HW,2013-04-14 08:20:00,
2013-04-14 03:25:00,54.4,46.3,29.54,South,180,8.9,12.8,74,0.00,,,0.00,WUHU216HW,2013-04-14 08:25:00,
2013-04-14 03:30:00,54.4,46.3,29.53,South,180,9.8,12.1,74,0.00,,,0.00,WUHU216HW,2013-04-14 08:30:00,
2013-04-14 03:35:00,54.4,46.3,29.53,SSE,158,12.8,12.8,74,0.00,,,0.00,WUHU216HW,2013-04-14 08:35:00,
2013-04-14 03:40:00,54.4,46.6,29.53,SSE,158,8.5,14.5,75,0.00,,,0.00,WUHU216HW,2013-04-14 08:40:00,
2013-04-14 03:45:00,54.4,46.6,29.53,South,180,9.6,14.5,75,0.00,,,0.00,WUHU216HW,2013-04-14 08:45:00,
2013-04-14 03:50:00,55.1,46.9,29.52,SSW,203,10.5,18.6,74,0.00,,,0.00,WUHU216HW,2013-04-14 08:50:00,
2013-04-14 03:55:00,55.3,46.7,29.52,SSW,203,8.3,18.6,73,0.00,,,0.00,WUHU216HW,2013-04-14 08:55:00,
2013-04-14 04:00:00,55.4,46.9,29.52,South,180,11.4,12.8,73,0.00,,,0.00,WUHU216HW,2013-04-14 09:00:00,
2013-04-14 04:05:00,55.6,47.1,29.52,SSW,203,12.1,15.7,73,0.00,,,0.00,WUHU216HW,2013-04-14 09:05:00,
2013-04-14 04:10:00,55.6,46.7,29.51,SSW,203,13.6,15.7,72,0.00,,,0.00,WUHU216HW,2013-04-14 09:10:00,
2013-04-14 04:15:00,56.0,46.7,29.51,SSE,158,12.8,18.3,71,0.00,,,0.00,WUHU216HW,2013-04-14 09:15:00,
2013-04-14 04:20:00,56.2,46.9,29.51,SSE,158,15.9,18.3,71,0.00,,,0.00,WUHU216HW,2013-04-14 09:20:00,
2013-04-14 04:25:00,56.2,46.9,29.51,South,180,13.9,16.3,71,0.00,,,0.00,WUHU216HW,2013-04-14 09:25:00,
2013-04-14 04:30:00,56.2,46.9,29.50,SW,225,11.4,16.3,71,0.00,,,0.00,WUHU216HW,2013-04-14 09:30:00,
2013-04-14 04:35:00,56.2,46.9,29.50,SSW,203,13.6,15.9,71,0.00,,,0.00,WUHU216HW,2013-04-14 09:35:00,
2013-04-14 04:40:00,56.3,46.7,29.50,South,180,15.7,15.9,70,0.00,,,0.00,WUHU216HW,2013-04-14 09:40:00,
2013-04-14 04:45:00,56.5,46.9,29.50,SSE,158,14.3,17.0,70,0.00,,,0.00,WUHU216HW,2013-04-14 09:45:00,
2013-04-14 04:50:00,56.5,46.9,29.50,SW,225,10.5,17.0,70,0.00,,,0.00,WUHU216HW,2013-04-14 09:50:00,
2013-04-14 04:55:00,56.7,46.6,29.49,SSW,203,9.8,14.3,69,0.00,,,0.00,WUHU216HW,2013-04-14 09:55:00,
2013-04-14 05:00:00,56.7,46.6,29.49,SSW,203,19.7,19.7,69,0.00,,,0.00,WUHU216HW,2013-04-14 10:00:00,
2013-04-14 05:05:00,57.1,46.5,29.49,South,180,14.3,19.7,68,0.00,,,0.00,WUHU216HW,2013-04-14 10:05:00,
2013-04-14 05:10:00,57.2,46.4,29.48,SSW,203,21.3,21.3,67,0.00,,,0.00,WUHU216HW,2013-04-14 10:10:00,
2013-04-14 05:15:00,57.2,46.4,29.48,SSW,203,12.1,21.3,67,0.00,,,0.00,WUHU216HW,2013-04-14 10:15:00,
2013-04-14 05:20:00,57.2,46.4,29.48,South,180,17.4,21.3,67,0.00,,,0.00,WUHU216HW,2013-04-14 10:20:00,
2013-04-14 05:25:00,57.2,46.4,29.48,South,180,11.2,19.2,67,0.00,,,0.00,WUHU216HW,2013-04-14 10:25:00,
2013-04-14 05:30:00,57.2,45.9,29.48,South,180,12.1,19.2,66,0.00,,,0.00,WUHU216HW,2013-04-14 10:30:00,
2013-04-14 05:35:00,57.4,46.1,29.47,South,180,14.5,18.6,66,0.00,,,0.00,WUHU216HW,2013-04-14 10:35:00,
2013-04-14 05:40:00,57.2,45.9,29.47,SSE,158,13.4,18.6,66,0.00,,,0.00,WUHU216HW,2013-04-14 10:40:00,
2013-04-14 05:45:00,57.4,46.1,29.47,SSW,203,15.7,19.2,66,0.00,,,0.00,WUHU216HW,2013-04-14 10:45:00,
2013-04-14 05:50:00,57.2,45.9,29.47,South,180,12.8,19.2,66,0.00,,,0.00,WUHU216HW,2013-04-14 10:50:00,
2013-04-14 05:55:00,57.2,45.9,29.47,South,180,17.9,17.9,66,0.00,,,0.00,WUHU216HW,2013-04-14 10:55:00,
2013-04-14 06:00:00,57.2,45.9,29.46,SSW,203,14.3,19.5,66,0.00,,,0.00,WUHU216HW,2013-04-14 11:00:00,
2013-04-14 06:05:00,57.2,45.9,29.46,SSW,203,20.4,20.4,66,0.00,,,0.00,WUHU216HW,2013-04-14 11:05:00,
2013-04-14 06:10:00,57.4,45.7,29.46,SSW,203,14.1,20.4,65,0.00,,,0.00,WUHU216HW,2013-04-14 11:10:00,
2013-04-14 06:15:00,57.8,46.1,29.45,South,180,16.6,18.6,65,0.00,,,0.00,WUHU216HW,2013-04-14 11:15:00,
2013-04-14 06:20:00,58.0,46.3,29.45,SSW,203,14.5,21.5,65,0.00,,,0.00,WUHU216HW,2013-04-14 11:20:00,
2013-04-14 06:25:00,58.0,45.8,29.45,SW,225,21.5,21.5,64,0.00,,,0.00,WUHU216HW,2013-04-14 11:25:00,
2013-04-14 06:30:00,58.3,46.2,29.45,South,180,13.6,21.5,64,0.00,,,0.00,WUHU216HW,2013-04-14 11:30:00,
2013-04-14 06:35:00,58.3,46.2,29.46,South,180,17.2,21.5,64,0.00,,,0.00,WUHU216HW,2013-04-14 11:35:00,
2013-04-14 06:40:00,58.5,46.4,29.46,SSW,203,19.5,20.1,64,0.00,,,0.00,WUHU216HW,2013-04-14 11:40:00,
2013-04-14 06:45:00,58.5,46.4,29.45,SSW,203,25.3,25.3,64,0.00,,,0.00,WUHU216HW,2013-04-14 11:45:00,
2013-04-14 06:50:00,58.7,46.5,29.45,South,180,15.9,25.3,64,0.00,,,0.00,WUHU216HW,2013-04-14 11:50:00,
2013-04-14 06:55:00,58.7,46.5,29.45,SSW,203,14.1,25.3,64,0.00,,,0.00,WUHU216HW,2013-04-14 11:55:00,
2013-04-14 07:00:00,58.7,46.5,29.45,SW,225,23.7,24.8,64,0.00,,,0.00,WUHU216HW,2013-04-14 12:00:00,
2013-04-14 07:05:00,58.7,46.5,29.45,SSW,203,18.3,23.7,64,0.00,,,0.00,WUHU216HW,2013-04-14 12:05:00,
2013-04-14 07:10:00,58.7,46.5,29.44,SSW,203,13.4,23.0,64,0.00,,,0.00,WUHU216HW,2013-04-14 12:10:00,
2013-04-14 07:15:00,58.7,46.5,29.44,SSE,158,20.8,23.0,64,0.00,,,0.00,WUHU216HW,2013-04-14 12:15:00,
2013-04-14 07:20:00,58.7,46.5,29.44,SSW,203,25.3,25.3,64,0.00,,,0.00,WUHU216HW,2013-04-14 12:20:00,
2013-04-14 07:25:00,58.7,46.5,29.44,WSW,248,17.0,25.3,64,0.00,,,0.00,WUHU216HW,2013-04-14 12:25:00,
2013-04-14 07:30:00,59.0,46.8,29.44,SSW,203,14.3,25.3,64,0.00,,,0.00,WUHU216HW,2013-04-14 12:30:00,
2013-04-14 07:35:00,59.0,47.3,29.44,SSW,203,16.3,17.7,65,0.00,,,0.00,WUHU216HW,2013-04-14 12:35:00,
2013-04-14 07:40:00,59.2,47.4,29.44,SSW,203,22.1,22.1,65,0.00,,,0.00,WUHU216HW,2013-04-14 12:40:00,
2013-04-14 07:45:00,59.2,47.0,29.44,SW,225,17.2,22.1,64,0.00,,,0.00,WUHU216HW,2013-04-14 12:45:00,
2013-04-14 07:50:00,59.2,47.4,29.45,SSW,203,20.1,22.1,65,0.00,,,0.00,WUHU216HW,2013-04-14 12:50:00,
2013-04-14 07:55:00,59.4,47.2,29.45,SW,225,22.1,22.1,64,0.00,,,0.00,WUHU216HW,2013-04-14 12:55:00,
2013-04-14 08:00:00,59.4,47.6,29.46,South,180,19.2,22.1,65,0.00,,,0.00,WUHU216HW,2013-04-14 13:00:00,
2013-04-14 08:05:00,59.4,47.2,29.46,SSW,203,18.6,19.2,64,0.00,,,0.00,WUHU216HW,2013-04-14 13:05:00,
2013-04-14 08:10:00,59.6,47.3,29.46,SSW,203,21.9,21.9,64,0.00,,,0.00,WUHU216HW,2013-04-14 13:10:00,
2013-04-14 08:15:00,59.8,47.5,29.46,SSW,203,18.1,21.9,64,0.00,,,0.00,WUHU216HW,2013-04-14 13:15:00,
2013-04-14 08:20:00,59.8,47.5,29.46,South,180,18.8,21.9,64,0.00,,,0.00,WUHU216HW,2013-04-14 13:20:00,
2013-04-14 08:25:00,59.9,47.7,29.46,SW,225,17.2,19.0,64,0.00,,,0.00,WUHU216HW,2013-04-14 13:25:00,
2013-04-14 08:30:00,60.1,48.3,29.46,SSW,203,18.3,20.6,65,0.00,,,0.00,WUHU216HW,2013-04-14 13:30:00,
2013-04-14 08:35:00,60.3,48.5,29.47,South,180,15.9,25.3,65,0.00,,,0.00,WUHU216HW,2013-04-14 13:35:00,
2013-04-14 08:40:00,60.5,48.2,29.46,South,180,22.6,25.3,64,0.00,,,0.00,WUHU216HW,2013-04-14 13:40:00,
2013-04-14 08:45:00,60.8,48.6,29.46,SSE,158,19.2,22.6,64,0.00,,,0.00,WUHU216HW,2013-04-14 13:45:00,
2013-04-14 08:50:00,61.4,48.7,29.46,SSW,203,20.1,22.6,63,0.00,,,0.00,WUHU216HW,2013-04-14 13:50:00,
2013-04-14 08:55:00,61.4,48.7,29.46,South,180,19.0,20.1,63,0.00,,,0.00,WUHU216HW,2013-04-14 13:55:00,
2013-04-14 09:00:00,61.6,48.9,29.46,SW,225,16.6,19.0,63,0.00,,,0.00,WUHU216HW,2013-04-14 14:00:00,
2013-04-14 09:05:00,61.6,49.3,29.46,SSW,203,14.3,16.6,64,0.00,,,0.00,WUHU216HW,2013-04-14 14:05:00,
2013-04-14 09:10:00,62.8,49.6,29.46,SSE,158,18.6,18.6,62,0.00,,,0.00,WUHU216HW,2013-04-14 14:10:00,
2013-04-14 09:15:00,62.6,49.1,29.45,SSW,203,18.6,18.6,61,0.00,,,0.00,WUHU216HW,2013-04-14 14:15:00,
2013-04-14 09:20:00,62.6,50.2,29.44,South,180,12.1,19.2,64,0.00,,,0.00,WUHU216HW,2013-04-14 14:20:00,
2013-04-14 09:25:00,63.4,50.1,29.44,SSW,203,20.8,20.8,62,0.00,,,0.00,WUHU216HW,2013-04-14 14:25:00,
2013-04-14 09:30:00,64.1,50.3,29.45,South,180,19.7,20.8,61,0.00,,,0.00,WUHU216HW,2013-04-14 14:30:00,
2013-04-14 09:35:00,64.6,50.0,29.44,SSW,203,19.7,25.9,59,0.00,,,0.00,WUHU216HW,2013-04-14 14:35:00,
2013-04-14 09:40:00,64.6,50.4,29.44,SSW,203,17.9,25.9,60,0.00,,,0.00,WUHU216HW,2013-04-14 14:40:00,
2013-04-14 09:45:00,64.4,49.8,29.44,SSW,203,23.0,23.5,59,0.00,,,0.00,WUHU216HW,2013-04-14 14:45:00,
2013-04-14 09:50:00,63.9,50.1,29.44,SSW,203,25.1,25.1,61,0.00,,,0.00,WUHU216HW,2013-04-14 14:50:00,
2013-04-14 09:55:00,63.7,50.1,29.48,SW,225,19.2,25.1,61,0.00,,,0.00,WUHU216HW,2013-04-14 14:55:00,
2013-04-14 10:00:00,63.4,50.1,29.49,SW,225,24.6,24.6,62,0.00,,,0.00,WUHU216HW,2013-04-14 15:00:00,
2013-04-14 10:05:00,63.2,50.0,29.46,SSW,203,14.5,24.6,62,0.00,,,0.00,WUHU216HW,2013-04-14 15:05:00,
2013-04-14 10:10:00,63.5,49.9,29.47,South,180,23.5,24.6,61,0.00,,,0.00,WUHU216HW,2013-04-14 15:10:00,
2013-04-14 10:15:00,63.9,50.1,29.47,SSW,203,15.0,23.5,61,0.00,,,0.00,WUHU216HW,2013-04-14 15:15:00,
2013-04-14 10:20:00,64.8,50.6,29.46,SW,225,18.6,22.6,60,0.00,,,0.00,WUHU216HW,2013-04-14 15:20:00,
2013-04-14 10:25:00,66.2,52.8,29.47,SSW,203,18.3,19.7,62,0.00,,,0.00,WUHU216HW,2013-04-14 15:25:00,
2013-04-14 10:30:00,67.5,51.2,29.46,SW,225,17.4,19.7,56,0.00,,,0.00,WUHU216HW,2013-04-14 15:30:00,
2013-04-14 10:35:00,67.0,51.2,29.46,South,180,16.3,18.3,57,0.00,,,0.00,WUHU216HW,2013-04-14 15:35:00,
2013-04-14 10:40:00,66.4,51.2,29.46,SW,225,16.3,17.9,58,0.00,,,0.00,WUHU216HW,2013-04-14 15:40:00,
2013-04-14 10:45:00,67.1,51.4,29.46,South,180,17.9,17.9,57,0.00,,,0.00,WUHU216HW,2013-04-14 15:45:00,
2013-04-14 10:50:00,67.9,52.5,29.46,SSW,203,15.0,17.9,58,0.00,,,0.00,WUHU216HW,2013-04-14 15:50:00,
2013-04-14 10:55:00,68.8,52.4,29.46,SW,225,14.5,17.9,56,0.00,,,0.00,WUHU216HW,2013-04-14 15:55:00,
2013-04-14 11:00:00,70.2,53.3,29.46,SSW,203,17.2,24.2,55,0.00,,,0.00,WUHU216HW,2013-04-14 16:00:00,
2013-04-14 11:05:00,71.1,53.0,29.46,SW,225,17.9,24.2,53,0.00,,,0.00,WUHU216HW,2013-04-14 16:05:00,
2013-04-14 11:10:00,70.9,52.9,29.46,South,180,18.3,23.9,53,0.00,,,0.00,WUHU216HW,2013-04-14 16:10:00,
2013-04-14 11:15:00,70.0,51.0,29.46,SSW,203,20.4,24.6,51,0.00,,,0.00,WUHU216HW,2013-04-14 16:15:00,
2013-04-14 11:20:00,68.8,51.4,29.46,SW,225,18.6,24.6,54,0.00,,,0.00,WUHU216HW,2013-04-14 16:20:00,
2013-04-14 11:25:00,69.1,51.2,29.46,SW,225,18.3,21.5,53,0.00,,,0.00,WUHU216HW,2013-04-14 16:25:00,
2013-04-14 11:30:00,69.1,52.2,29.46,South,180,11.2,21.5,55,0.00,,,0.00,WUHU216HW,2013-04-14 16:30:00,
2013-04-14 11:35:00,69.3,51.4,29.46,SW,225,21.3,21.3,53,0.00,,,0.00,WUHU216HW,2013-04-14 16:35:00,
2013-04-14 11:40:00,68.9,51.1,29.46,SSW,203,17.0,21.3,53,0.00,,,0.00,WUHU216HW,2013-04-14 16:40:00,
2013-04-14 11:45:00,68.6,51.2,29.46,WSW,248,14.8,21.3,54,0.00,,,0.00,WUHU216HW,2013-04-14 16:45:00,
2013-04-14 11:50:00,68.2,51.4,29.46,SSW,203,15.0,17.0,55,0.00,,,0.00,WUHU216HW,2013-04-14 16:50:00,
2013-04-14 11:55:00,68.0,51.2,29.46,SSW,203,11.6,15.0,55,0.00,,,0.00,WUHU216HW,2013-04-14 16:55:00,
2013-04-14 12:00:00,68.8,51.4,29.46,SW,225,15.7,15.7,54,0.00,,,0.00,WUHU216HW,2013-04-14 17:00:00,
2013-04-14 12:05:00,69.3,51.9,29.46,SW,225,21.7,21.7,54,0.00,,,0.00,WUHU216HW,2013-04-14 17:05:00,
2013-04-14 12:10:00,69.8,51.9,29.46,WSW,248,15.9,21.7,53,0.00,,,0.00,WUHU216HW,2013-04-14 17:10:00,
2013-04-14 12:15:00,69.1,50.2,29.45,SW,225,23.7,23.7,51,0.00,,,0.00,WUHU216HW,2013-04-14 17:15:00,
2013-04-14 12:20:00,69.1,51.2,29.46,SSW,203,15.0,23.7,53,0.00,,,0.00,WUHU216HW,2013-04-14 17:20:00,
2013-04-14 12:25:00,69.5,52.1,29.46,SW,225,11.9,23.7,54,0.00,,,0.00,WUHU216HW,2013-04-14 17:25:00,
2013-04-14 12:30:00,69.7,51.2,29.45,SSW,203,18.8,18.8,52,0.00,,,0.00,WUHU216HW,2013-04-14 17:30:00,
2013-04-14 12:35:00,69.8,51.4,29.45,SW,225,20.1,23.0,52,0.00,,,0.00,WUHU216HW,2013-04-14 17:35:00,
2013-04-14 12:40:00,70.2,53.3,29.45,SSW,203,14.3,23.0,55,0.00,,,0.00,WUHU216HW,2013-04-14 17:40:00,
2013-04-14 12:45:00,70.9,52.4,29.45,South,180,16.6,20.8,52,0.00,,,0.00,WUHU216HW,2013-04-14 17:45:00,
2013-04-14 12:50:00,71.3,52.8,29.45,SSW,203,16.6,20.8,52,0.00,,,0.00,WUHU216HW,2013-04-14 17:50:00,
2013-04-14 12:55:00,71.6,52.6,29.45,SW,225,16.1,20.4,51,0.00,,,0.00,WUHU216HW,2013-04-14 17:55:00,
2013-04-14 13:00:00,70.9,52.4,29.45,SW,225,16.1,24.4,52,0.00,,,0.00,WUHU216HW,2013-04-14 18:00:00,
2013-04-14 13:05:00,71.5,53.9,29.45,SSW,203,17.9,24.4,54,0.00,,,0.00,WUHU216HW,2013-04-14 18:05:00,
2013-04-14 13:10:00,71.8,53.2,29.45,SW,225,12.5,21.0,52,0.00,,,0.00,WUHU216HW,2013-04-14 18:10:00,
2013-04-14 13:15:00,71.6,54.0,29.45,SW,225,15.4,21.0,54,0.00,,,0.00,WUHU216HW,2013-04-14 18:15:00,
2013-04-14 13:20:00,71.3,52.8,29.45,SSW,203,13.6,22.6,52,0.00,,,0.00,WUHU216HW,2013-04-14 18:20:00,
2013-04-14 13:25:00,71.1,53.0,29.45,SW,225,13.4,22.6,53,0.00,,,0.00,WUHU216HW,2013-04-14 18:25:00,
2013-04-14 13:30:00,71.6,53.6,29.45,WSW,248,11.9,19.9,53,0.00,,,0.00,WUHU216HW,2013-04-14 18:30:00,
2013-04-14 13:35:00,72.0,53.8,29.45,SSW,203,17.0,17.0,53,0.00,,,0.00,WUHU216HW,2013-04-14 18:35:00,
2013-04-14 13:40:00,71.8,52.7,29.45,SSW,203,12.8,17.0,51,0.00,,,0.00,WUHU216HW,2013-04-14 18:40:00,
2013-04-14 13:45:00,71.6,53.6,29.45,SSW,203,11.2,15.4,53,0.00,,,0.00,WUHU216HW,2013-04-14 18:45:00,
2013-04-14 13:50:00,70.4,52.4,29.45,SW,225,14.1,18.6,53,0.00,,,0.00,WUHU216HW,2013-04-14 18:50:00,
2013-04-14 13:55:00,70.0,52.1,29.45,SW,225,10.5,18.6,53,0.00,,,0.00,WUHU216HW,2013-04-14 18:55:00,
2013-04-14 14:00:00,69.7,52.3,29.45,SW,225,8.9,14.1,54,0.00,,,0.00,WUHU216HW,2013-04-14 19:00:00,
2013-04-14 14:05:00,68.9,52.0,29.45,SW,225,10.5,15.0,55,0.00,,,0.00,WUHU216HW,2013-04-14 19:05:00,
2013-04-14 14:10:00,68.8,52.4,29.45,WSW,248,8.7,15.0,56,0.00,,,0.00,WUHU216HW,2013-04-14 19:10:00,
2013-04-14 14:15:00,68.9,51.6,29.45,WSW,248,9.8,14.1,54,0.00,,,0.00,WUHU216HW,2013-04-14 19:15:00,
2013-04-14 14:20:00,68.9,51.1,29.45,WSW,248,7.6,14.1,53,0.00,,,0.00,WUHU216HW,2013-04-14 19:20:00,
2013-04-14 14:25:00,68.9,51.1,29.45,West,270,10.3,15.0,53,0.00,,,0.00,WUHU216HW,2013-04-14 19:25:00,
2013-04-14 14:30:00,69.8,52.9,29.45,West,270,7.6,17.9,55,0.00,,,0.00,WUHU216HW,2013-04-14 19:30:00,
2013-04-14 14:35:00,70.4,52.9,29.46,WSW,248,12.8,17.9,54,0.00,,,0.00,WUHU216HW,2013-04-14 19:35:00,
2013-04-14 14:40:00,70.2,53.3,29.46,WSW,248,12.5,12.8,55,0.00,,,0.00,WUHU216HW,2013-04-14 19:40:00,
2013-04-14 14:45:00,70.2,53.3,29.46,WSW,248,10.1,12.5,55,0.00,,,0.00,WUHU216HW,2013-04-14 19:45:00,
2013-04-14 14:50:00,69.8,53.5,29.46,SW,225,9.2,11.4,56,0.00,,,0.00,WUHU216HW,2013-04-14 19:50:00,
2013-04-14 14:55:00,69.7,52.7,29.46,WSW,248,8.7,11.4,55,0.00,,,0.00,WUHU216HW,2013-04-14 19:55:00,
2013-04-14 15:00:00,69.3,52.9,29.46,SW,225,8.1,10.5,56,0.00,,,0.00,WUHU216HW,2013-04-14 20:00:00,
2013-04-14 15:05:00,69.1,54.2,29.46,WSW,248,6.7,8.7,59,0.00,,,0.00,WUHU216HW,2013-04-14 20:05:00,
2013-04-14 15:10:00,69.1,53.2,29.46,WSW,248,8.9,10.5,57,0.00,,,0.00,WUHU216HW,2013-04-14 20:10:00,
2013-04-14 15:15:00,68.6,53.2,29.46,WSW,248,11.4,12.5,58,0.00,,,0.00,WUHU216HW,2013-04-14 20:15:00,
2013-04-14 15:20:00,68.2,53.4,29.46,SW,225,10.1,12.5,59,0.00,,,0.00,WUHU216HW,2013-04-14 20:20:00,
2013-04-14 15:25:00,68.0,53.6,29.46,SW,225,4.7,13.9,60,0.00,,,0.00,WUHU216HW,2013-04-14 20:25:00,
2013-04-14 15:30:00,67.7,53.3,29.46,WSW,248,7.8,13.9,60,0.00,,,0.00,WUHU216HW,2013-04-14 20:30:00,
2013-04-14 15:35:00,67.5,53.6,29.46,WSW,248,9.2,9.2,61,0.00,,,0.00,WUHU216HW,2013-04-14 20:35:00,
2013-04-14 15:40:00,67.3,53.0,29.46,SW,225,10.1,10.1,60,0.00,,,0.00,WUHU216HW,2013-04-14 20:40:00,
2013-04-14 15:45:00,67.1,53.3,29.46,West,270,6.0,10.1,61,0.00,,,0.00,WUHU216HW,2013-04-14 20:45:00,
2013-04-14 15:50:00,67.0,53.9,29.47,West,270,4.7,10.1,63,0.00,,,0.00,WUHU216HW,2013-04-14 20:50:00,
2013-04-14 15:55:00,66.6,54.0,29.47,SW,225,6.9,6.9,64,0.00,,,0.00,WUHU216HW,2013-04-14 20:55:00,
2013-04-14 16:00:00,66.6,53.7,29.47,WSW,248,6.0,6.9,63,0.00,,,0.00,WUHU216HW,2013-04-14 21:00:00,
2013-04-14 16:05:00,66.6,54.0,29.47,SW,225,4.5,6.9,64,0.00,,,0.00,WUHU216HW,2013-04-14 21:05:00,
2013-04-14 16:10:00,66.1,53.9,29.47,SW,225,5.8,6.0,65,0.00,,,0.00,WUHU216HW,2013-04-14 21:10:00,
2013-04-14 16:15:00,65.9,54.2,29.47,WSW,248,6.3,6.3,66,0.00,,,0.00,WUHU216HW,2013-04-14 21:15:00,
2013-04-14 16:20:00,66.1,54.4,29.47,West,270,3.4,6.3,66,0.00,,,0.00,WUHU216HW,2013-04-14 21:20:00,
2013-04-14 16:25:00,66.2,54.1,29.46,SW,225,5.4,6.3,65,0.00,,,0.00,WUHU216HW,2013-04-14 21:25:00,
2013-04-14 16:30:00,66.8,54.6,29.46,SW,225,2.9,5.4,65,0.00,,,0.00,WUHU216HW,2013-04-14 21:30:00,
2013-04-14 16:35:00,66.8,55.0,29.47,SW,225,3.4,5.4,66,0.00,,,0.00,WUHU216HW,2013-04-14 21:35:00,
2013-04-14 16:40:00,66.8,55.0,29.47,WSW,248,1.8,4.5,66,0.00,,,0.00,WUHU216HW,2013-04-14 21:40:00,
2013-04-14 16:45:00,66.6,54.5,29.47,WSW,248,4.0,6.5,65,0.00,,,0.00,WUHU216HW,2013-04-14 21:45:00,
2013-04-14 16:50:00,66.6,54.8,29.47,SW,225,5.1,6.5,66,0.00,,,0.00,WUHU216HW,2013-04-14 21:50:00,
2013-04-14 16:55:00,66.6,54.5,29.47,West,270,6.0,6.0,65,0.00,,,0.00,WUHU216HW,2013-04-14 21:55:00,
2013-04-14 17:00:00,66.8,55.0,29.47,SW,225,3.4,6.0,66,0.00,,,0.00,WUHU216HW,2013-04-14 22:00:00,
2013-04-14 17:05:00,66.8,55.4,29.47,WSW,248,2.7,6.0,67,0.00,,,0.00,WUHU216HW,2013-04-14 22:05:00,
2013-04-14 17:10:00,66.6,54.8,29.48,WSW,248,2.5,3.4,66,0.00,,,0.00,WUHU216HW,2013-04-14 22:10:00,
2013-04-14 17:15:00,66.6,50.0,29.48,WNW,293,10.5,10.5,55,0.00,,,0.00,WUHU216HW,2013-04-14 22:15:00,
2013-04-14 17:20:00,66.4,49.8,29.48,WSW,248,3.4,10.5,55,0.00,,,0.00,WUHU216HW,2013-04-14 22:20:00,
2013-04-14 17:25:00,66.2,49.2,29.48,WNW,293,8.3,8.3,54,0.00,,,0.00,WUHU216HW,2013-04-14 22:25:00,
2013-04-14 17:30:00,65.9,48.2,29.48,WNW,293,6.5,8.3,53,0.00,,,0.00,WUHU216HW,2013-04-14 22:30:00,
2013-04-14 17:35:00,65.9,48.8,29.49,WNW,293,8.5,8.5,54,0.00,,,0.00,WUHU216HW,2013-04-14 22:35:00,
2013-04-14 17:40:00,65.9,48.8,29.49,West,270,8.9,8.9,54,0.00,,,0.00,WUHU216HW,2013-04-14 22:40:00,
2013-04-14 17:45:00,65.2,48.1,29.49,NNW,338,4.0,8.9,54,0.00,,,0.00,WUHU216HW,2013-04-14 22:45:00,
2013-04-14 17:50:00,65.2,48.1,29.49,WNW,293,5.1,7.2,54,0.00,,,0.00,WUHU216HW,2013-04-14 22:50:00,
2013-04-14 17:55:00,65.0,47.9,29.50,NW,315,5.6,7.2,54,0.00,,,0.00,WUHU216HW,2013-04-14 22:55:00,
2013-04-14 18:00:00,65.0,47.3,29.49,WNW,293,5.6,5.6,53,0.00,,,0.00,WUHU216HW,2013-04-14 23:00:00,
2013-04-14 18:05:00,65.0,46.9,29.50,WNW,293,9.4,9.4,52,0.00,,,0.00,WUHU216HW,2013-04-14 23:05:00,
2013-04-14 18:10:00,65.0,46.9,29.51,NW,315,8.9,9.4,52,0.00,,,0.00,WUHU216HW,2013-04-14 23:10:00,
2013-04-14 18:15:00,65.0,46.4,29.51,West,270,9.8,11.0,51,0.00,,,0.00,WUHU216HW,2013-04-14 23:15:00,
2013-04-14 18:20:00,65.3,46.7,29.51,NW,315,7.6,11.0,51,0.00,,,0.00,WUHU216HW,2013-04-14 23:20:00,
2013-04-14 18:25:00,65.0,45.4,29.52,NW,315,12.8,12.8,49,0.00,,,0.00,WUHU216HW,2013-04-14 23:25:00,
2013-04-14 18:30:00,64.4,45.8,29.53,WNW,293,7.4,13.4,51,0.00,,,0.00,WUHU216HW,2013-04-14 23:30:00,
2013-04-14 18:35:00,63.7,45.7,29.53,NW,315,6.5,13.4,52,0.00,,,0.00,WUHU216HW,2013-04-14 23:35:00,
2013-04-14 18:40:00,63.2,45.7,29.54,NW,315,8.7,13.4,53,0.00,,,0.00,WUHU216HW,2013-04-14 23:40:00,
2013-04-14 18:45:00,62.8,45.4,29.54,NW,315,12.1,12.1,53,0.00,,,0.00,WUHU216HW,2013-04-14 23:45:00,
2013-04-14 18:50:00,62.6,46.2,29.54,NW,315,6.3,12.1,55,0.00,,,0.00,WUHU216HW,2013-04-14 23:50:00,
2013-04-14 18:55:00,62.3,45.8,29.54,WNW,293,3.4,12.1,55,0.00,,,0.00,WUHU216HW,2013-04-14 23:55:00,
2013-04-14 19:00:00,62.3,45.8,29.54,NW,315,6.9,6.9,55,0.00,,,0.00,WUHU216HW,2013-04-15 00:00:00,
2013-04-14 19:05:00,61.9,45.6,29.54,WNW,293,6.0,6.9,55,0.00,,,0.00,WUHU216HW,2013-04-15 00:05:00,
2013-04-14 19:10:00,61.7,46.4,29.54,NW,315,4.0,6.9,57,0.00,,,0.00,WUHU216HW,2013-04-15 00:10:00,
2013-04-14 19:15:00,61.7,45.8,29.54,NNW,338,6.9,6.9,56,0.00,,,0.00,WUHU216HW,2013-04-15 00:15:00,
2013-04-14 19:20:00,61.6,45.2,29.55,WNW,293,2.5,6.9,55,0.00,,,0.00,WUHU216HW,2013-04-15 00:20:00,
2013-04-14 19:25:00,61.4,44.1,29.54,NNW,338,2.5,6.9,53,0.00,,,0.00,WUHU216HW,2013-04-15 00:25:00,
2013-04-14 19:30:00,61.2,43.9,29.54,NW,315,2.9,6.9,53,0.00,,,0.00,WUHU216HW,2013-04-15 00:30:00,
2013-04-14 19:35:00,61.2,44.4,29.55,WNW,293,2.0,3.4,54,0.00,,,0.00,WUHU216HW,2013-04-15 00:35:00,
2013-04-14 19:40:00,60.8,45.0,29.55,WNW,293,3.4,3.4,56,0.00,,,0.00,WUHU216HW,2013-04-15 00:40:00,
2013-04-14 19:45:00,60.5,45.6,29.56,WNW,293,4.0,4.0,58,0.00,,,0.00,WUHU216HW,2013-04-15 00:45:00,
2013-04-14 19:50:00,60.1,46.3,29.56,WNW,293,4.3,4.7,60,0.00,,,0.00,WUHU216HW,2013-04-15 00:50:00,
2013-04-14 19:55:00,60.1,45.8,29.57,NW,315,5.8,7.8,59,0.00,,,0.00,WUHU216HW,2013-04-15 00:55:00,
2013-04-14 20:00:00,60.3,46.4,29.57,NW,315,6.0,7.8,60,0.00,,,0.00,WUHU216HW,2013-04-15 01:00:00,
2013-04-14 20:06:00,60.1,46.3,29.58,WNW,293,5.6,6.5,60,0.00,,,0.00,WUHU216HW,2013-04-15 01:06:00,
2013-04-14 20:11:00,60.1,45.8,29.59,NW,315,6.9,6.9,59,0.00,,,0.00,WUHU216HW,2013-04-15 01:11:00,
2013-04-14 20:16:00,60.1,45.3,29.59,WNW,293,6.3,6.9,58,0.00,,,0.00,WUHU216HW,2013-04-15 01:16:00,
2013-04-14 20:21:00,59.9,43.7,29.58,NNW,338,2.0,6.9,55,0.00,,,0.00,WUHU216HW,2013-04-15 01:21:00,
2013-04-14 20:26:00,59.9,42.8,29.59,NNW,338,3.4,4.0,53,0.00,,,0.00,WUHU216HW,2013-04-15 01:26:00,
2013-04-14 20:31:00,59.6,42.8,29.59,NW,315,3.8,5.4,54,0.00,,,0.00,WUHU216HW,2013-04-15 01:31:00,
2013-04-14 20:36:00,59.0,42.0,29.60,NW,315,4.3,5.4,53,0.00,,,0.00,WUHU216HW,2013-04-15 01:36:00,
2013-04-14 20:41:00,58.7,40.7,29.60,NNW,338,5.4,5.4,51,0.00,,,0.00,WUHU216HW,2013-04-15 01:41:00,
2013-04-14 20:46:00,58.7,40.1,29.60,WNW,293,4.3,5.4,50,0.00,,,0.00,WUHU216HW,2013-04-15 01:46:00,
2013-04-14 20:51:00,58.0,40.5,29.60,NNW,338,2.2,5.4,52,0.00,,,0.00,WUHU216HW,2013-04-15 01:51:00,
2013-04-14 20:56:00,57.2,40.3,29.61,NW,315,3.6,4.7,53,0.00,,,0.00,WUHU216HW,2013-04-15 01:56:00,
2013-04-14 21:01:00,56.9,40.4,29.62,NW,315,4.0,4.7,54,0.00,,,0.00,WUHU216HW,2013-04-15 02:01:00,
2013-04-14 21:06:00,57.1,39.6,29.63,WNW,293,9.6,9.6,52,0.00,,,0.00,WUHU216HW,2013-04-15 02:06:00,
2013-04-14 21:11:00,57.8,37.6,29.63,NW,315,5.6,9.6,47,0.00,,,0.00,WUHU216HW,2013-04-15 02:11:00,
2013-04-14 21:16:00,58.7,36.2,29.63,NW,315,5.6,9.6,43,0.00,,,0.00,WUHU216HW,2013-04-15 02:16:00,
2013-04-14 21:21:00,59.0,35.9,29.62,NW,315,3.1,8.9,42,0.00,,,0.00,WUHU216HW,2013-04-15 02:21:00,
2013-04-14 21:26:00,59.4,35.1,29.63,NNW,338,3.1,7.4,40,0.00,,,0.00,WUHU216HW,2013-04-15 02:26:00,
2013-04-14 21:31:00,59.4,34.4,29.64,NNW,338,4.7,7.4,39,0.00,,,0.00,WUHU216HW,2013-04-15 02:31:00,
2013-04-14 21:36:00,59.0,34.0,29.65,WSW,248,4.7,6.9,39,0.00,,,0.00,WUHU216HW,2013-04-15 02:36:00,
2013-04-14 21:41:00,58.7,33.8,29.65,NW,315,4.7,6.7,39,0.00,,,0.00,WUHU216HW,2013-04-15 02:41:00,
2013-04-14 21:46:00,58.1,33.2,29.65,NE,45,8.5,8.5,39,0.00,,,0.00,WUHU216HW,2013-04-15 02:46:00,
2013-04-14 21:51:00,58.0,33.8,29.65,NW,315,1.8,8.5,40,0.00,,,0.00,WUHU216HW,2013-04-15 02:51:00,
2013-04-14 21:56:00,57.6,33.5,29.65,SW,225,4.7,4.9,40,0.00,,,0.00,WUHU216HW,2013-04-15 02:56:00,
2013-04-14 22:01:00,57.4,33.3,29.66,NNW,338,4.0,7.8,40,0.00,,,0.00,WUHU216HW,2013-04-15 03:01:00,
2013-04-14 22:06:00,57.2,33.7,29.67,NNW,338,4.7,7.8,41,0.00,,,0.00,WUHU216HW,2013-04-15 03:06:00,
2013-04-14 22:11:00,57.2,33.1,29.67,NNW,338,4.7,6.9,40,0.00,,,0.00,WUHU216HW,2013-04-15 03:11:00,
2013-04-14 22:16:00,57.2,33.1,29.67,NW,315,3.4,5.1,40,0.00,,,0.00,WUHU216HW,2013-04-15 03:16:00,
2013-04-14 22:21:00,56.9,32.8,29.67,NW,315,7.4,7.4,40,0.00,,,0.00,WUHU216HW,2013-04-15 03:21:00,
2013-04-14 22:26:00,56.7,32.7,29.67,WNW,293,3.8,7.4,40,0.00,,,0.00,WUHU216HW,2013-04-15 03:26:00,
2013-04-14 22:31:00,56.5,33.0,29.67,NNW,338,1.8,6.5,41,0.00,,,0.00,WUHU216HW,2013-04-15 03:31:00,
2013-04-14 22:36:00,56.5,33.0,29.67,WNW,293,2.9,5.1,41,0.00,,,0.00,WUHU216HW,2013-04-15 03:36:00,
2013-04-14 22:41:00,56.5,32.5,29.67,NNE,23,4.0,8.7,40,0.00,,,0.00,WUHU216HW,2013-04-15 03:41:00,
2013-04-14 22:46:00,56.5,32.5,29.67,NNW,338,5.1,8.7,40,0.00,,,0.00,WUHU216HW,2013-04-15 03:46:00,
2013-04-14 22:51:00,56.7,33.2,29.68,WNW,293,4.3,5.1,41,0.00,,,0.00,WUHU216HW,2013-04-15 03:51:00,
2013-04-14 22:56:00,56.3,32.3,29.68,North,0,4.3,5.1,40,0.00,,,0.00,WUHU216HW,2013-04-15 03:56:00,
2013-04-14 23:00:00,56.2,32.7,29.68,NNE,23,7.6,7.6,41,0.00,,,0.00,WUHU216HW,2013-04-15 04:00:00,
2013-04-14 23:05:00,55.6,32.8,29.68,North,0,0.9,7.6,42,0.00,,,0.00,WUHU216HW,2013-04-15 04:05:00,
2013-04-14 23:10:00,55.4,32.6,29.69,NE,45,4.0,6.0,42,0.00,,,0.00,WUHU216HW,2013-04-15 04:10:00,
2013-04-14 23:15:00,55.1,32.3,29.69,NNW,338,5.8,7.2,42,0.00,,,0.00,WUHU216HW,2013-04-15 04:15:00,
2013-04-14 23:20:00,55.1,32.9,29.68,NNW,338,4.5,7.2,43,0.00,,,0.00,WUHU216HW,2013-04-15 04:20:00,
2013-04-14 23:25:00,55.3,33.0,29.68,NW,315,4.5,4.7,43,0.00,,,0.00,WUHU216HW,2013-04-15 04:25:00,
2013-04-14 23:30:00,55.3,32.5,29.67,NNW,338,4.5,4.7,42,0.00,,,0.00,WUHU216HW,2013-04-15 04:30:00,
2013-04-14 23:35:00,55.1,33.4,29.69,NW,315,5.4,7.6,44,0.00,,,0.00,WUHU216HW,2013-04-15 04:35:00,
2013-04-14 23:40:00,54.7,33.1,29.70,North,0,3.4,7.6,44,0.00,,,0.00,WUHU216HW,2013-04-15 04:40:00,
2013-04-14 23:45:00,54.7,33.1,29.68,NNW,338,7.6,7.6,44,0.00,,,0.00,WUHU216HW,2013-04-15 04:45:00,
2013-04-14 23:50:00,54.7,33.1,29.70,NW,315,2.2,7.6,44,0.00,,,0.00,WUHU216HW,2013-04-15 04:50:00,
2013-04-14 23:55:00,54.5,33.0,29.71,WNW,293,3.6,9.2,44,0.00,,,0.00,WUHU216HW,2013-04-15 04:55:00,